This is the latest recevied weather packets stored in our database for station/object KK4WXG. If no packets are shown the sender has not sent any weather packets the latest 10 day(s).
| Time | Temp. | Humidity | Pressure | Rain* | Wind** | Luminosity | Snow |
|---|---|---|---|---|---|---|---|
| 1777594840 | 11.11° C | 56% | 1011.9 hPa | 0 mm | - | 0 W/m² | - |
| 1777594536 | 11.67° C | 56% | 1011.9 hPa | 0 mm | - | 1 W/m² | - |
| 1777594232 | 11.67° C | 56% | 1011.9 hPa | 0 mm | - | 2 W/m² | - |
| 1777593928 | 11.67° C | 55% | 1011.6 hPa | 0 mm | - | 3 W/m² | - |
| 1777593625 | 11.67° C | 56% | 1011.6 hPa | 0 mm | - | 6 W/m² | - |
| 1777593321 | 11.67° C | 56% | 1011.7 hPa | 0 mm | - | 9 W/m² | - |
| 1777593015 | 11.67° C | 55% | 1011.7 hPa | 0 mm | - | 13 W/m² | - |
| 1777592709 | 12.22° C | 54% | 1011.8 hPa | 0 mm | - | 17 W/m² | - |
| 1777592405 | 12.78° C | 53% | 1011.9 hPa | 0 mm | - | 21 W/m² | - |
| 1777592100 | 12.22° C | 52% | 1011.7 hPa | 0 mm | - | 26 W/m² | - |
| 1777591798 | 12.22° C | 52% | 1011.8 hPa | 0 mm | - | 29 W/m² | - |
| 1777591494 | 12.78° C | 51% | 1011.6 hPa | 0 mm | - | 34 W/m² | - |
| 1777591190 | 12.78° C | 51% | 1011.7 hPa | 0 mm | - | 37 W/m² | - |
| 1777590884 | 13.33° C | 52% | 1011.4 hPa | 0 mm | - | 52 W/m² | - |
| 1777590582 | 13.33° C | 52% | 1011.4 hPa | 0 mm | - | 58 W/m² | - |
| 1777590278 | 13.33° C | 53% | 1011.2 hPa | 0 mm | - | 67 W/m² | - |
| 1777589975 | 13.89° C | 52% | 1011.4 hPa | 0 mm | - | 75 W/m² | - |
| 1777589671 | 13.89° C | 50% | 1011.1 hPa | 0 mm | - | 83 W/m² | - |
| 1777589369 | 14.44° C | 49% | 1011 hPa | 0 mm | - | 97 W/m² | - |
| 1777589066 | 15° C | 47% | 1011 hPa | 0 mm | - | 112 W/m² | - |
| 1777588762 | 15° C | 50% | 1010.9 hPa | 0 mm | - | 130 W/m² | - |
| 1777588458 | 15° C | 50% | 1010.7 hPa | 0 mm | - | 155 W/m² | - |
| 1777588153 | 14.44° C | 51% | 1010.7 hPa | 0 mm | - | 157 W/m² | - |
| 1777587850 | 14.44° C | 53% | 1010.6 hPa | 0 mm | - | 68 W/m² | - |
| 1777587550 | 15° C | 51% | 1010.4 hPa | 0 mm | - | 72 W/m² | - |
* Rain latest hour (hover to see other rain measurements)
** Current wind speed in m/s (hover to see current wind gust speed)